Year,Month,Day,Hour,Minute,Value (Times are PST for windgust in km/hr)
2017,05,23,00,13,1.60
2017,05,23,00,17,1.60
2017,05,23,00,21,3.20
2017,05,23,00,22,3.20
2017,05,23,00,23,3.20
2017,05,23,00,49,1.60
2017,05,23,00,58,1.60
2017,05,23,00,59,3.20
2017,05,23,01,00,3.20
2017,05,23,01,01,3.20
2017,05,23,01,02,1.60
2017,05,23,01,07,1.60
2017,05,23,01,08,3.20
2017,05,23,01,09,3.20
2017,05,23,01,10,3.20
2017,05,23,01,11,3.20
2017,05,23,01,12,3.20
2017,05,23,01,13,3.20
2017,05,23,01,14,3.20
2017,05,23,01,15,3.20
2017,05,23,01,16,3.20
2017,05,23,01,17,1.60
2017,05,23,01,20,1.60
2017,05,23,01,21,1.60
2017,05,23,01,23,1.60
2017,05,23,01,24,1.60
2017,05,23,01,30,3.20
2017,05,23,01,36,1.60
2017,05,23,01,37,3.20
2017,05,23,01,38,1.60
2017,05,23,01,39,1.60
2017,05,23,01,40,3.20
2017,05,23,01,41,1.60
2017,05,23,01,42,1.60
2017,05,23,02,07,1.60
2017,05,23,02,11,1.60
2017,05,23,02,12,3.20
2017,05,23,02,13,3.20
2017,05,23,02,16,3.20
2017,05,23,02,17,3.20
2017,05,23,02,18,3.20
2017,05,23,02,37,1.60
2017,05,23,03,24,3.20
2017,05,23,04,35,1.60
2017,05,23,04,36,3.20
2017,05,23,04,37,1.60
2017,05,23,04,38,3.20
2017,05,23,04,39,1.60
2017,05,23,04,42,1.60
2017,05,23,04,50,1.60
2017,05,23,05,09,6.40
2017,05,23,05,10,6.40
2017,05,23,05,11,8.10
2017,05,23,05,12,8.10
2017,05,23,05,13,6.40
2017,05,23,05,14,4.80
2017,05,23,05,15,4.80
2017,05,23,05,16,8.10
2017,05,23,05,17,6.40
2017,05,23,05,18,6.40
2017,05,23,05,19,6.40
2017,05,23,05,20,6.40
2017,05,23,05,21,3.20
2017,05,23,05,22,4.80
2017,05,23,05,23,6.40
2017,05,23,05,24,6.40
2017,05,23,05,25,4.80
2017,05,23,05,26,8.10
2017,05,23,05,27,6.40
2017,05,23,05,28,8.10
2017,05,23,05,29,6.40
2017,05,23,05,30,6.40
2017,05,23,05,31,6.40
2017,05,23,05,32,6.40
2017,05,23,05,33,4.80
2017,05,23,05,34,3.20
2017,05,23,05,35,3.20
2017,05,23,05,36,3.20
2017,05,23,05,37,3.20
2017,05,23,05,44,1.60
2017,05,23,05,45,3.20
2017,05,23,05,46,1.60
2017,05,23,05,47,1.60
2017,05,23,05,50,1.60
2017,05,23,05,58,1.60
2017,05,23,05,59,4.80
2017,05,23,06,00,4.80
2017,05,23,06,01,4.80
2017,05,23,06,02,4.80
2017,05,23,06,03,3.20
2017,05,23,06,04,3.20
2017,05,23,06,05,1.60
2017,05,23,06,06,1.60
2017,05,23,06,07,1.60
2017,05,23,06,08,1.60
2017,05,23,06,09,1.60
2017,05,23,06,42,1.60
2017,05,23,06,53,3.20
2017,05,23,06,54,4.80
2017,05,23,06,55,4.80
2017,05,23,06,56,4.80
2017,05,23,06,57,6.40
2017,05,23,06,58,8.10
2017,05,23,06,59,6.40
2017,05,23,07,00,4.80
2017,05,23,07,01,6.40
2017,05,23,07,02,4.80
2017,05,23,07,03,8.10
2017,05,23,07,04,6.40
2017,05,23,07,05,1.60
2017,05,23,07,06,1.60
2017,05,23,07,07,1.60
2017,05,23,07,08,1.60
2017,05,23,07,09,1.60
2017,05,23,07,10,4.80
2017,05,23,07,11,3.20
2017,05,23,07,12,3.20
2017,05,23,07,13,1.60
2017,05,23,07,14,3.20
2017,05,23,07,15,3.20
2017,05,23,07,16,1.60
2017,05,23,07,17,1.60
2017,05,23,07,18,3.20
2017,05,23,07,19,3.20
2017,05,23,07,20,3.20
2017,05,23,07,21,3.20
2017,05,23,07,22,3.20
2017,05,23,07,23,1.60
2017,05,23,07,24,3.20
2017,05,23,07,25,1.60
2017,05,23,07,26,4.80
2017,05,23,07,27,4.80
2017,05,23,07,28,4.80
2017,05,23,07,29,8.10
2017,05,23,07,30,6.40
2017,05,23,07,31,6.40
2017,05,23,07,32,4.80
2017,05,23,07,33,4.80
2017,05,23,07,34,3.20
2017,05,23,07,35,6.40
2017,05,23,07,36,6.40
2017,05,23,07,37,4.80
2017,05,23,07,38,8.10
2017,05,23,07,39,6.40
2017,05,23,07,40,6.40
2017,05,23,07,41,6.40
2017,05,23,07,42,8.10
2017,05,23,07,43,8.10
2017,05,23,07,44,6.40
2017,05,23,07,45,6.40
2017,05,23,07,46,6.40
2017,05,23,07,47,6.40
2017,05,23,07,48,3.20
2017,05,23,07,49,6.40
2017,05,23,07,50,6.40
2017,05,23,07,51,4.80
2017,05,23,07,52,4.80
2017,05,23,07,53,3.20
2017,05,23,07,54,3.20
2017,05,23,07,55,3.20
2017,05,23,07,56,3.20
2017,05,23,07,57,3.20
2017,05,23,07,58,3.20
2017,05,23,07,59,4.80
2017,05,23,08,00,3.20
2017,05,23,08,01,3.20
2017,05,23,08,02,3.20
2017,05,23,08,03,3.20
2017,05,23,08,04,3.20
2017,05,23,08,05,3.20
2017,05,23,08,06,4.80
2017,05,23,08,07,3.20
2017,05,23,08,08,4.80
2017,05,23,08,09,3.20
2017,05,23,08,10,3.20
2017,05,23,08,11,3.20
2017,05,23,08,12,3.20
2017,05,23,08,13,4.80
2017,05,23,08,14,4.80
2017,05,23,08,15,3.20
2017,05,23,08,16,3.20
2017,05,23,08,17,6.40
2017,05,23,08,18,4.80
2017,05,23,08,19,4.80
2017,05,23,08,20,6.40
2017,05,23,08,21,4.80
2017,05,23,08,22,4.80
2017,05,23,08,23,3.20
2017,05,23,08,24,4.80
2017,05,23,08,25,4.80
2017,05,23,08,26,4.80
2017,05,23,08,27,4.80
2017,05,23,08,28,4.80
2017,05,23,08,29,3.20
2017,05,23,08,30,4.80
2017,05,23,08,31,6.40
2017,05,23,08,32,6.40
2017,05,23,08,33,6.40
2017,05,23,08,34,4.80
2017,05,23,08,35,4.80
2017,05,23,08,36,4.80
2017,05,23,08,37,4.80
2017,05,23,08,38,4.80
2017,05,23,08,39,6.40
2017,05,23,08,40,4.80
2017,05,23,08,41,3.20
2017,05,23,08,42,3.20
2017,05,23,08,43,4.80
2017,05,23,08,44,4.80
2017,05,23,08,45,6.40
2017,05,23,08,46,4.80
2017,05,23,08,47,4.80
2017,05,23,08,48,4.80
2017,05,23,08,49,6.40
2017,05,23,08,50,4.80
2017,05,23,08,51,4.80
2017,05,23,08,52,8.10
2017,05,23,08,53,4.80
2017,05,23,08,54,4.80
2017,05,23,08,55,3.20
2017,05,23,08,56,3.20
2017,05,23,08,57,4.80
2017,05,23,08,58,9.60
2017,05,23,08,59,9.60
2017,05,23,09,00,8.10
2017,05,23,09,01,11.30
2017,05,23,09,02,11.30
2017,05,23,09,03,6.40
2017,05,23,09,04,6.40
2017,05,23,09,05,11.30
2017,05,23,09,06,8.10
2017,05,23,09,07,4.80
2017,05,23,09,08,6.40
2017,05,23,09,09,6.40
2017,05,23,09,10,4.80
2017,05,23,09,11,4.80
2017,05,23,09,12,8.10
2017,05,23,09,13,8.10
2017,05,23,09,14,6.40
2017,05,23,09,15,6.40
2017,05,23,09,16,6.40
2017,05,23,09,17,6.40
2017,05,23,09,18,4.80
2017,05,23,09,19,4.80
2017,05,23,09,20,4.80
2017,05,23,09,21,3.20
2017,05,23,09,22,3.20
2017,05,23,09,23,6.40
2017,05,23,09,24,8.10
2017,05,23,09,25,6.40
2017,05,23,09,26,9.60
2017,05,23,09,27,8.10
2017,05,23,09,28,9.60
2017,05,23,09,29,8.10
2017,05,23,09,30,8.10
2017,05,23,09,31,9.60
2017,05,23,09,32,8.10
2017,05,23,09,33,4.80
2017,05,23,09,34,6.40
2017,05,23,09,35,6.40
2017,05,23,09,36,6.40
2017,05,23,09,37,4.80
2017,05,23,09,38,6.40
2017,05,23,09,39,8.10
2017,05,23,09,40,4.80
2017,05,23,09,41,9.60
2017,05,23,09,42,9.60
2017,05,23,09,43,8.10
2017,05,23,09,44,9.60
2017,05,23,09,45,8.10
2017,05,23,09,46,8.10
2017,05,23,09,47,8.10
2017,05,23,09,48,6.40
2017,05,23,09,49,4.80
2017,05,23,09,50,8.10
2017,05,23,09,51,6.40
2017,05,23,09,52,4.80
2017,05,23,09,53,4.80
2017,05,23,09,54,4.80
2017,05,23,09,55,4.80
2017,05,23,09,56,8.10
2017,05,23,09,57,4.80
2017,05,23,09,58,6.40
2017,05,23,09,59,6.40
2017,05,23,10,00,6.40
2017,05,23,10,01,3.20
2017,05,23,10,02,4.80
2017,05,23,10,03,4.80
2017,05,23,10,04,4.80
2017,05,23,10,05,4.80
2017,05,23,10,06,8.10
2017,05,23,10,07,6.40
2017,05,23,10,08,6.40
2017,05,23,10,09,6.40
2017,05,23,10,10,8.10
2017,05,23,10,11,9.60
2017,05,23,10,12,8.10
2017,05,23,10,13,9.60
2017,05,23,10,14,6.40
2017,05,23,10,15,8.10
2017,05,23,10,16,8.10
2017,05,23,10,17,9.60
2017,05,23,10,18,9.60
2017,05,23,10,19,8.10
2017,05,23,10,20,8.10
2017,05,23,10,21,9.60
2017,05,23,10,22,8.10
2017,05,23,10,23,11.30
2017,05,23,10,24,8.10
2017,05,23,10,25,8.10
2017,05,23,10,26,9.60
2017,05,23,10,27,9.60
2017,05,23,10,28,8.10
2017,05,23,10,29,11.30
2017,05,23,10,30,11.30
2017,05,23,10,31,8.10
2017,05,23,10,32,6.40
2017,05,23,10,33,6.40
2017,05,23,10,34,4.80
2017,05,23,10,35,6.40
2017,05,23,10,36,8.10
2017,05,23,10,37,6.40
2017,05,23,10,38,8.10
2017,05,23,10,39,8.10
2017,05,23,10,40,9.60
2017,05,23,10,41,9.60
2017,05,23,10,42,8.10
2017,05,23,10,43,8.10
2017,05,23,10,44,11.30
2017,05,23,10,45,11.30
2017,05,23,10,46,14.50
2017,05,23,10,47,11.30
2017,05,23,10,48,8.10
2017,05,23,10,49,11.30
2017,05,23,10,50,14.50
2017,05,23,10,51,11.30
2017,05,23,10,52,11.30
2017,05,23,10,53,9.60
2017,05,23,10,54,9.60
2017,05,23,10,55,11.30
2017,05,23,10,56,9.60
2017,05,23,10,57,12.90
2017,05,23,10,58,9.60
2017,05,23,10,59,9.60
2017,05,23,11,00,6.40
2017,05,23,11,01,11.30
2017,05,23,11,02,11.30
2017,05,23,11,03,9.60
2017,05,23,11,04,9.60
2017,05,23,11,05,9.60
2017,05,23,11,06,9.60
2017,05,23,11,07,11.30
2017,05,23,11,08,6.40
2017,05,23,11,09,9.60
2017,05,23,11,10,8.10
2017,05,23,11,11,9.60
2017,05,23,11,12,8.10
2017,05,23,11,13,9.60
2017,05,23,11,14,11.30
2017,05,23,11,15,9.60
2017,05,23,11,16,11.30
2017,05,23,11,17,14.50
2017,05,23,11,18,14.50
2017,05,23,11,19,11.30
2017,05,23,11,20,11.30
2017,05,23,11,21,11.30
2017,05,23,11,22,14.50
2017,05,23,11,23,16.10
2017,05,23,11,24,11.30
2017,05,23,11,25,11.30
2017,05,23,11,26,14.50
2017,05,23,11,27,9.60
2017,05,23,11,28,11.30
2017,05,23,11,29,16.10
2017,05,23,11,30,14.50
2017,05,23,11,31,16.10
2017,05,23,11,32,16.10
2017,05,23,11,33,16.10
2017,05,23,11,34,14.50
2017,05,23,11,35,16.10
2017,05,23,11,36,12.90
2017,05,23,11,37,11.30
2017,05,23,11,38,16.10
2017,05,23,11,39,12.90
2017,05,23,11,40,14.50
2017,05,23,11,41,14.50
2017,05,23,11,42,17.70
2017,05,23,11,43,17.70
2017,05,23,11,44,11.30
2017,05,23,11,45,14.50
2017,05,23,11,46,14.50
2017,05,23,11,47,16.10
2017,05,23,11,48,9.60
2017,05,23,11,49,9.60
2017,05,23,11,50,16.10
2017,05,23,11,51,16.10
2017,05,23,11,52,12.90
2017,05,23,11,53,11.30
2017,05,23,11,54,9.60
2017,05,23,11,55,11.30
2017,05,23,11,56,9.60
2017,05,23,11,57,9.60
2017,05,23,11,58,8.10
2017,05,23,11,59,8.10
2017,05,23,12,00,11.30
2017,05,23,12,01,14.50
2017,05,23,12,02,16.10
2017,05,23,12,03,16.10
2017,05,23,12,04,14.50
2017,05,23,12,05,12.90
2017,05,23,12,06,9.60
2017,05,23,12,07,14.50
2017,05,23,12,08,11.30
2017,05,23,12,09,12.90
2017,05,23,12,10,9.60
2017,05,23,12,11,14.50
2017,05,23,12,12,9.60
2017,05,23,12,13,9.60
2017,05,23,12,14,11.30
2017,05,23,12,15,11.30
2017,05,23,12,16,11.30
2017,05,23,12,17,9.60
2017,05,23,12,18,9.60
2017,05,23,12,19,9.60
2017,05,23,12,20,8.10
2017,05,23,12,21,11.30
2017,05,23,12,22,11.30
2017,05,23,12,23,11.30
2017,05,23,12,24,11.30
2017,05,23,12,25,9.60
2017,05,23,12,26,9.60
2017,05,23,12,27,8.10
2017,05,23,12,28,12.90
2017,05,23,12,29,12.90
2017,05,23,12,30,11.30
2017,05,23,12,31,14.50
2017,05,23,12,32,11.30
2017,05,23,12,33,8.10
2017,05,23,12,34,6.40
2017,05,23,12,35,8.10
2017,05,23,12,36,16.10
2017,05,23,12,37,11.30
2017,05,23,12,38,9.60
2017,05,23,12,39,6.40
2017,05,23,12,40,8.10
2017,05,23,12,41,8.10
2017,05,23,12,42,8.10
2017,05,23,12,43,8.10
2017,05,23,12,44,9.60
2017,05,23,12,45,8.10
2017,05,23,12,46,8.10
2017,05,23,12,47,8.10
2017,05,23,12,48,6.40
2017,05,23,12,49,4.80
2017,05,23,12,50,4.80
2017,05,23,12,51,6.40
2017,05,23,12,52,11.30
2017,05,23,12,53,9.60
2017,05,23,12,54,9.60
2017,05,23,12,55,9.60
2017,05,23,12,56,9.60
2017,05,23,12,57,9.60
2017,05,23,12,58,9.60
2017,05,23,12,59,9.60
2017,05,23,13,00,11.30
2017,05,23,13,01,9.60
2017,05,23,13,02,11.30
2017,05,23,13,03,8.10
2017,05,23,13,04,11.30
2017,05,23,13,05,9.60
2017,05,23,13,06,11.30
2017,05,23,13,07,11.30
2017,05,23,13,08,14.50
2017,05,23,13,09,9.60
2017,05,23,13,10,8.10
2017,05,23,13,11,12.90
2017,05,23,13,12,12.90
2017,05,23,13,13,11.30
2017,05,23,13,14,9.60
2017,05,23,13,15,9.60
2017,05,23,13,16,12.90
2017,05,23,13,17,6.40
2017,05,23,13,18,11.30
2017,05,23,13,19,9.60
2017,05,23,13,20,6.40
2017,05,23,13,21,8.10
2017,05,23,13,22,8.10
2017,05,23,13,23,14.50
2017,05,23,13,24,17.70
2017,05,23,13,25,11.30
2017,05,23,13,26,11.30
2017,05,23,13,27,14.50
2017,05,23,13,28,14.50
2017,05,23,13,29,12.90
2017,05,23,13,30,8.10
2017,05,23,13,31,12.90
2017,05,23,13,32,14.50
2017,05,23,13,33,14.50
2017,05,23,13,34,20.90
2017,05,23,13,35,16.10
2017,05,23,13,36,19.30
2017,05,23,13,37,14.50
2017,05,23,13,38,8.10
2017,05,23,13,39,12.90
2017,05,23,13,40,14.50
2017,05,23,13,41,8.10
2017,05,23,13,42,12.90
2017,05,23,13,43,12.90
2017,05,23,13,44,11.30
2017,05,23,13,45,14.50
2017,05,23,13,46,14.50
2017,05,23,13,47,11.30
2017,05,23,13,48,8.10
2017,05,23,13,49,11.30
2017,05,23,13,50,17.70
2017,05,23,13,51,11.30
2017,05,23,13,52,11.30
2017,05,23,13,53,8.10
2017,05,23,13,54,8.10
2017,05,23,13,55,4.80
2017,05,23,13,56,4.80
2017,05,23,13,57,4.80
2017,05,23,13,58,32.20
2017,05,23,13,59,25.70
2017,05,23,14,00,22.50
2017,05,23,14,01,33.80
2017,05,23,14,02,35.40
2017,05,23,14,03,45.10
2017,05,23,14,04,38.60
2017,05,23,14,05,40.20
2017,05,23,14,06,27.40
2017,05,23,14,07,32.20
2017,05,23,14,08,38.60
2017,05,23,14,09,32.20
2017,05,23,14,10,33.80
2017,05,23,14,11,37.00
2017,05,23,14,12,32.20
2017,05,23,14,13,49.90
2017,05,23,14,14,35.40
2017,05,23,14,15,41.80
2017,05,23,14,16,43.50
2017,05,23,14,17,37.00
2017,05,23,14,18,43.50
2017,05,23,14,19,46.70
2017,05,23,14,20,33.80
2017,05,23,14,21,38.60
2017,05,23,14,22,35.40
2017,05,23,14,23,38.60
2017,05,23,14,24,32.20
2017,05,23,14,25,41.80
2017,05,23,14,26,40.20
2017,05,23,14,27,32.20
2017,05,23,14,28,41.80
2017,05,23,14,29,33.80
2017,05,23,14,30,40.20
2017,05,23,14,31,45.10
2017,05,23,14,32,37.00
2017,05,23,14,33,37.00
2017,05,23,14,34,49.90
2017,05,23,14,35,37.00
2017,05,23,14,36,40.20
2017,05,23,14,37,38.60
2017,05,23,14,38,33.80
2017,05,23,14,39,46.70
2017,05,23,14,40,46.70
2017,05,23,14,41,41.80
2017,05,23,14,42,29.00
2017,05,23,14,43,33.80
2017,05,23,14,44,40.20
2017,05,23,14,45,43.50
2017,05,23,14,46,40.20
2017,05,23,14,47,43.50
2017,05,23,14,48,49.90
2017,05,23,14,49,51.50
2017,05,23,14,50,48.30
2017,05,23,14,51,48.30
2017,05,23,14,52,48.30
2017,05,23,14,53,40.20
2017,05,23,14,54,48.30
2017,05,23,14,55,53.10
2017,05,23,14,56,46.70
2017,05,23,14,57,51.50
2017,05,23,14,58,45.10
2017,05,23,14,59,48.30
2017,05,23,15,00,46.70
2017,05,23,15,01,43.50
2017,05,23,15,02,43.50
2017,05,23,15,03,48.30
2017,05,23,15,04,48.30
2017,05,23,15,05,40.20
2017,05,23,15,06,45.10
2017,05,23,15,07,40.20
2017,05,23,15,08,40.20
2017,05,23,15,09,45.10
2017,05,23,15,10,49.90
2017,05,23,15,11,48.30
2017,05,23,15,12,45.10
2017,05,23,15,13,35.40
2017,05,23,15,14,38.60
2017,05,23,15,15,38.60
2017,05,23,15,16,43.50
2017,05,23,15,17,40.20
2017,05,23,15,18,27.40
2017,05,23,15,19,43.50
2017,05,23,15,20,41.80
2017,05,23,15,21,40.20
2017,05,23,15,22,45.10
2017,05,23,15,23,49.90
2017,05,23,15,24,49.90
2017,05,23,15,25,37.00
2017,05,23,15,26,41.80
2017,05,23,15,27,32.20
2017,05,23,15,28,48.30
2017,05,23,15,29,48.30
2017,05,23,15,30,53.10
2017,05,23,15,31,43.50
2017,05,23,15,32,43.50
2017,05,23,15,33,51.50
2017,05,23,15,34,51.50
2017,05,23,15,35,43.50
2017,05,23,15,36,41.80
2017,05,23,15,37,43.50
2017,05,23,15,38,51.50
2017,05,23,15,39,43.50
2017,05,23,15,40,43.50
2017,05,23,15,41,45.10
2017,05,23,15,42,46.70
2017,05,23,15,43,49.90
2017,05,23,15,44,45.10
2017,05,23,15,45,43.50
2017,05,23,15,46,41.80
2017,05,23,15,47,45.10
2017,05,23,15,48,46.70
2017,05,23,15,49,53.10
2017,05,23,15,50,46.70
2017,05,23,15,51,49.90
2017,05,23,15,52,49.90
2017,05,23,15,53,43.50
2017,05,23,15,54,45.10
2017,05,23,15,55,43.50
2017,05,23,15,56,45.10
2017,05,23,15,57,41.80
2017,05,23,15,58,48.30
2017,05,23,15,59,54.70
2017,05,23,16,00,43.50
2017,05,23,16,01,43.50
2017,05,23,16,02,45.10
2017,05,23,16,03,46.70
2017,05,23,16,04,33.80
2017,05,23,16,05,49.90
2017,05,23,16,06,40.20
2017,05,23,16,07,43.50
2017,05,23,16,08,37.00
2017,05,23,16,09,40.20
2017,05,23,16,10,49.90
2017,05,23,16,11,53.10
2017,05,23,16,12,45.10
2017,05,23,16,13,30.60
2017,05,23,16,14,38.60
2017,05,23,16,15,43.50
2017,05,23,16,16,43.50
2017,05,23,16,17,32.20
2017,05,23,16,18,45.10
2017,05,23,16,19,43.50
2017,05,23,16,20,40.20
2017,05,23,16,21,43.50
2017,05,23,16,22,49.90
2017,05,23,16,23,46.70
2017,05,23,16,24,45.10
2017,05,23,16,25,40.20
2017,05,23,16,26,45.10
2017,05,23,16,27,45.10
2017,05,23,16,28,43.50
2017,05,23,16,29,43.50
2017,05,23,16,30,35.40
2017,05,23,16,31,41.80
2017,05,23,16,32,35.40
2017,05,23,16,33,43.50
2017,05,23,16,34,43.50
2017,05,23,16,35,38.60
2017,05,23,16,36,33.80
2017,05,23,16,37,43.50
2017,05,23,16,38,35.40
2017,05,23,16,39,29.00
2017,05,23,16,40,32.20
2017,05,23,16,41,30.60
2017,05,23,16,42,24.20
2017,05,23,16,43,37.00
2017,05,23,16,44,32.20
2017,05,23,16,45,30.60
2017,05,23,16,46,25.70
2017,05,23,16,47,33.80
2017,05,23,16,48,27.40
2017,05,23,16,49,27.40
2017,05,23,16,50,37.00
2017,05,23,16,51,29.00
2017,05,23,16,52,27.40
2017,05,23,16,53,27.40
2017,05,23,16,54,19.30
2017,05,23,16,55,24.20
2017,05,23,16,56,22.50
2017,05,23,16,57,19.30
2017,05,23,16,58,20.90
2017,05,23,16,59,24.20
2017,05,23,17,00,35.40
2017,05,23,17,01,25.70
2017,05,23,17,02,22.50
2017,05,23,17,03,22.50
2017,05,23,17,04,22.50
2017,05,23,17,05,27.40
2017,05,23,17,06,20.90
2017,05,23,17,07,29.00
2017,05,23,17,08,25.70
2017,05,23,17,09,32.20
2017,05,23,17,10,24.20
2017,05,23,17,11,22.50
2017,05,23,17,12,19.30
2017,05,23,17,13,29.00
2017,05,23,17,14,25.70
2017,05,23,17,15,27.40
2017,05,23,17,16,30.60
2017,05,23,17,17,32.20
2017,05,23,17,18,30.60
2017,05,23,17,19,29.00
2017,05,23,17,20,24.20
2017,05,23,17,21,19.30
2017,05,23,17,22,20.90
2017,05,23,17,23,22.50
2017,05,23,17,24,32.20
2017,05,23,17,25,35.40
2017,05,23,17,26,30.60
2017,05,23,17,27,24.20
2017,05,23,17,28,24.20
2017,05,23,17,29,19.30
2017,05,23,17,30,20.90
2017,05,23,17,31,29.00
2017,05,23,17,32,29.00
2017,05,23,17,33,32.20
2017,05,23,17,34,33.80
2017,05,23,17,35,30.60
2017,05,23,17,36,33.80
2017,05,23,17,37,33.80
2017,05,23,17,38,24.20
2017,05,23,17,39,27.40
2017,05,23,17,40,25.70
2017,05,23,17,41,29.00
2017,05,23,17,42,24.20
2017,05,23,17,43,25.70
2017,05,23,17,44,25.70
2017,05,23,17,45,20.90
2017,05,23,17,46,19.30
2017,05,23,17,47,30.60
2017,05,23,17,48,24.20
2017,05,23,17,49,24.20
2017,05,23,17,50,25.70
2017,05,23,17,51,29.00
2017,05,23,17,52,29.00
2017,05,23,17,53,35.40
2017,05,23,17,54,37.00
2017,05,23,17,55,40.20
2017,05,23,17,56,33.80
2017,05,23,17,57,25.70
2017,05,23,17,58,25.70
2017,05,23,17,59,37.00
2017,05,23,18,00,30.60
2017,05,23,18,01,24.20
2017,05,23,18,02,33.80
2017,05,23,18,03,38.60
2017,05,23,18,04,41.80
2017,05,23,18,05,30.60
2017,05,23,18,06,38.60
2017,05,23,18,07,35.40
2017,05,23,18,08,33.80
2017,05,23,18,09,35.40
2017,05,23,18,10,35.40
2017,05,23,18,11,37.00
2017,05,23,18,12,41.80
2017,05,23,18,13,33.80
2017,05,23,18,14,27.40
2017,05,23,18,15,38.60
2017,05,23,18,16,35.40
2017,05,23,18,17,48.30
2017,05,23,18,18,46.70
2017,05,23,18,19,41.80
2017,05,23,18,20,30.60
2017,05,23,18,21,33.80
2017,05,23,18,22,37.00
2017,05,23,18,23,35.40
2017,05,23,18,24,32.20
2017,05,23,18,25,41.80
2017,05,23,18,26,32.20
2017,05,23,18,27,46.70
2017,05,23,18,28,30.60
2017,05,23,18,29,33.80
2017,05,23,18,30,24.20
2017,05,23,18,31,30.60
2017,05,23,18,32,32.20
2017,05,23,18,33,29.00
2017,05,23,18,34,24.20
2017,05,23,18,35,24.20
2017,05,23,18,36,35.40
2017,05,23,18,37,29.00
2017,05,23,18,38,32.20
2017,05,23,18,39,27.40
2017,05,23,18,40,46.70
2017,05,23,18,41,30.60
2017,05,23,18,42,27.40
2017,05,23,18,43,35.40
2017,05,23,18,44,41.80
2017,05,23,18,45,46.70
2017,05,23,18,46,38.60
2017,05,23,18,47,16.10
2017,05,23,18,48,27.40
2017,05,23,18,49,32.20
2017,05,23,18,50,29.00
2017,05,23,18,51,33.80
2017,05,23,18,52,30.60
2017,05,23,18,53,29.00
2017,05,23,18,54,43.50
2017,05,23,18,55,40.20
2017,05,23,18,56,35.40
2017,05,23,18,57,33.80
2017,05,23,18,58,30.60
2017,05,23,18,59,35.40
2017,05,23,19,00,29.00
2017,05,23,19,01,33.80
2017,05,23,19,02,33.80
2017,05,23,19,03,30.60
2017,05,23,19,04,30.60
2017,05,23,19,05,25.70
2017,05,23,19,06,29.00
2017,05,23,19,07,32.20
2017,05,23,19,08,32.20
2017,05,23,19,09,25.70
2017,05,23,19,10,41.80
2017,05,23,19,11,37.00
2017,05,23,19,12,29.00
2017,05,23,19,13,29.00
2017,05,23,19,14,33.80
2017,05,23,19,15,38.60
2017,05,23,19,16,38.60
2017,05,23,19,17,32.20
2017,05,23,19,18,33.80
2017,05,23,19,19,37.00
2017,05,23,19,20,25.70
2017,05,23,19,21,32.20
2017,05,23,19,22,25.70
2017,05,23,19,23,33.80
2017,05,23,19,24,17.70
2017,05,23,19,25,32.20
2017,05,23,19,26,33.80
2017,05,23,19,27,32.20
2017,05,23,19,28,25.70
2017,05,23,19,29,29.00
2017,05,23,19,30,29.00
2017,05,23,19,31,33.80
2017,05,23,19,32,32.20
2017,05,23,19,33,35.40
2017,05,23,19,34,37.00
2017,05,23,19,35,20.90
2017,05,23,19,36,29.00
2017,05,23,19,37,33.80
2017,05,23,19,38,29.00
2017,05,23,19,39,19.30
2017,05,23,19,40,20.90
2017,05,23,19,41,20.90
2017,05,23,19,42,20.90
2017,05,23,19,43,27.40
2017,05,23,19,44,22.50
2017,05,23,19,45,27.40
2017,05,23,19,46,35.40
2017,05,23,19,47,32.20
2017,05,23,19,48,27.40
2017,05,23,19,49,24.20
2017,05,23,19,50,20.90
2017,05,23,19,51,20.90
2017,05,23,19,52,22.50
2017,05,23,19,53,19.30
2017,05,23,19,54,12.90
2017,05,23,19,55,20.90
2017,05,23,19,56,20.90
2017,05,23,19,57,29.00
2017,05,23,19,58,24.20
2017,05,23,19,59,24.20
2017,05,23,20,00,25.70
2017,05,23,20,01,27.40
2017,05,23,20,02,32.20
2017,05,23,20,03,27.40
2017,05,23,20,04,30.60
2017,05,23,20,05,29.00
2017,05,23,20,06,30.60
2017,05,23,20,07,25.70
2017,05,23,20,08,25.70
2017,05,23,20,09,25.70
2017,05,23,20,10,25.70
2017,05,23,20,11,32.20
2017,05,23,20,12,27.40
2017,05,23,20,13,27.40
2017,05,23,20,14,27.40
2017,05,23,20,15,33.80
2017,05,23,20,16,24.20
2017,05,23,20,17,25.70
2017,05,23,20,18,25.70
2017,05,23,20,19,30.60
2017,05,23,20,20,35.40
2017,05,23,20,21,40.20
2017,05,23,20,22,48.30
2017,05,23,20,23,45.10
2017,05,23,20,24,33.80
2017,05,23,20,25,43.50
2017,05,23,20,26,41.80
2017,05,23,20,27,32.20
2017,05,23,20,28,35.40
2017,05,23,20,29,35.40
2017,05,23,20,30,35.40
2017,05,23,20,31,30.60
2017,05,23,20,32,24.20
2017,05,23,20,33,33.80
2017,05,23,20,34,35.40
2017,05,23,20,35,25.70
2017,05,23,20,36,29.00
2017,05,23,20,37,25.70
2017,05,23,20,38,29.00
2017,05,23,20,39,35.40
2017,05,23,20,40,25.70
2017,05,23,20,41,35.40
2017,05,23,20,42,22.50
2017,05,23,20,43,30.60
2017,05,23,20,44,27.40
2017,05,23,20,45,32.20
2017,05,23,20,46,27.40
2017,05,23,20,47,35.40
2017,05,23,20,48,29.00
2017,05,23,20,49,38.60
2017,05,23,20,50,40.20
2017,05,23,20,51,38.60
2017,05,23,20,52,27.40
2017,05,23,20,53,27.40
2017,05,23,20,54,24.20
2017,05,23,20,55,29.00
2017,05,23,20,56,29.00
2017,05,23,20,57,22.50
2017,05,23,20,58,24.20
2017,05,23,20,59,22.50
2017,05,23,21,00,22.50
2017,05,23,21,01,14.50
2017,05,23,21,02,20.90
2017,05,23,21,03,30.60
2017,05,23,21,04,25.70
2017,05,23,21,05,24.20
2017,05,23,21,06,24.20
2017,05,23,21,07,22.50
2017,05,23,21,08,27.40
2017,05,23,21,09,25.70
2017,05,23,21,10,25.70
2017,05,23,21,11,25.70
2017,05,23,21,12,24.20
2017,05,23,21,13,22.50
2017,05,23,21,14,25.70
2017,05,23,21,15,24.20
2017,05,23,21,16,17.70
2017,05,23,21,17,22.50
2017,05,23,21,18,20.90
2017,05,23,21,19,19.30
2017,05,23,21,20,19.30
2017,05,23,21,21,17.70
2017,05,23,21,22,17.70
2017,05,23,21,23,19.30
2017,05,23,21,24,22.50
2017,05,23,21,25,20.90
2017,05,23,21,26,16.10
2017,05,23,21,27,29.00
2017,05,23,21,28,27.40
2017,05,23,21,29,27.40
2017,05,23,21,30,17.70
2017,05,23,21,31,27.40
2017,05,23,21,32,24.20
2017,05,23,21,33,29.00
2017,05,23,21,34,19.30
2017,05,23,21,35,25.70
2017,05,23,21,36,25.70
2017,05,23,21,37,27.40
2017,05,23,21,38,25.70
2017,05,23,21,39,25.70
2017,05,23,21,40,25.70
2017,05,23,21,41,20.90
2017,05,23,21,42,25.70
2017,05,23,21,43,29.00
2017,05,23,21,44,14.50
2017,05,23,21,45,24.20
2017,05,23,21,46,20.90
2017,05,23,21,47,22.50
2017,05,23,21,48,24.20
2017,05,23,21,49,24.20
2017,05,23,21,50,25.70
2017,05,23,21,51,25.70
2017,05,23,21,52,22.50
2017,05,23,21,53,19.30
2017,05,23,21,54,29.00
2017,05,23,21,55,25.70
2017,05,23,21,56,19.30
2017,05,23,21,57,17.70
2017,05,23,21,58,25.70
2017,05,23,21,59,19.30
2017,05,23,22,00,17.70
2017,05,23,22,01,16.10
2017,05,23,22,02,17.70
2017,05,23,22,03,17.70
2017,05,23,22,04,14.50
2017,05,23,22,05,24.20
2017,05,23,22,06,20.90
2017,05,23,22,07,17.70
2017,05,23,22,08,8.10
2017,05,23,22,09,9.60
2017,05,23,22,10,9.60
2017,05,23,22,11,16.10
2017,05,23,22,12,9.60
2017,05,23,22,13,16.10
2017,05,23,22,14,8.10
2017,05,23,22,15,11.30
2017,05,23,22,16,8.10
2017,05,23,22,17,6.40
2017,05,23,22,18,11.30
2017,05,23,22,19,14.50
2017,05,23,22,20,14.50
2017,05,23,22,21,14.50
2017,05,23,22,22,9.60
2017,05,23,22,23,12.90
2017,05,23,22,24,9.60
2017,05,23,22,25,9.60
2017,05,23,22,26,6.40
2017,05,23,22,27,11.30
2017,05,23,22,28,14.50
2017,05,23,22,29,17.70
2017,05,23,22,30,17.70
2017,05,23,22,31,16.10
2017,05,23,22,32,11.30
2017,05,23,22,33,17.70
2017,05,23,22,34,17.70
2017,05,23,22,35,9.60
2017,05,23,22,36,9.60
2017,05,23,22,37,6.40
2017,05,23,22,38,9.60
2017,05,23,22,39,11.30
2017,05,23,22,40,11.30
2017,05,23,22,41,9.60
2017,05,23,22,42,17.70
2017,05,23,22,43,22.50
2017,05,23,22,44,14.50
2017,05,23,22,45,16.10
2017,05,23,22,46,11.30
2017,05,23,22,47,11.30
2017,05,23,22,48,11.30
2017,05,23,22,49,11.30
2017,05,23,22,50,14.50
2017,05,23,22,51,9.60
2017,05,23,22,52,9.60
2017,05,23,22,53,14.50